Location: Unspecified
(35.6961°N, 0.0000°E)
Time: 13:30:46
(UTC+00:00)

Altair - Pass Details

Date: 27 May 2019
Orbit: 1501 x 1683 km, 47.2° (Epoch: 25 June)

Event Time Altitude Azimuth Distance (km) Brightness Sun altitude
Rises 01:32:40 0° 215° (SW) 4,833 - -28.7°
Reaches altitude 10° 01:35:49 10° 212° (SSW) 3,870 - -28.5°
Exits shadow 01:42:43 46° 184° (S) 2,124 7.8 -27.8°
Maximum altitude 01:45:30 59° 136° (SE) 1,892 7.8 -27.6°
Drops below altitude 10° 01:55:22 10° 61° (ENE) 3,948 10.4 -26.6°
Sets 01:58:36 0° 57° (ENE) 4,936 11.2 -26.2°
